www.pogodaiklimat.ru

Погода и климат >> Архив погоды >> Россия >> Эвенкия >> Тутончаны


АРХИВ ПОГОДЫ в Тутончанах

Время (UTC), дата Ветер
(напр.,м/с)
 
Видим.   Явления Облачность Т
(С)
Тd
(С)
f
(%)
Тe
(С)
Тes
(С)
Комфортность P
(гПа)
Po
(гПа)
Тmin
(С)
Tmax
(С)
R
(мм)
R24
(мм)
S
(см)
18 12.06 СВ 1 50 км 9/9 1000 м
[Sc]
+7.9 +1.0 62 +7 +7 1003.6 990.7
00 13.06 В 1 50 км 10/10 1000 м
[Sc]
+6.7 +3.1 78 +6 +6 1001.1 988.1 +3.5
06 13.06 В 5
{10}
50 км в посл. час ливневой дождь 10/10 600 м
[Cb cap]
+11.5 +8.3 81 +9 +9 992.2 978.6
12 13.06 Ю 2
{13}
50 км {ливн. осадки} 6/6 600 м
[Cb cap]
+20.2 +9.3 49 +22 +23 комфорт 992.9 980.7 +21.0 3
18 13.06 В 1 10 км слаб. ливневой дождь 10/10 600 м
[Cb cap]
+14.4 +12.2 87 +15 +15 991.3 978.9
00 14.06 В 3 50 км в посл. час ливневой дождь 10/10 600 м
[Cb cap]
+14.7 +12.1 84 +14 +14 990.1 977.7 +12.8 5
06 14.06 ЮЗ 2
{12}
10 км слаб. ливневой дождь 10/10 600 м
[Cb cap]
+9.6 +6.6 82 +8 +8 994.1 981.4
12 14.06 СЗ 5
{11}
50 км {ливн. осадки} 8/8 600 м
[Cb cap]
+11.5 +1.6 51 +9 +10 999.9 987.3 +15.5 3
18 14.06 штиль 0
{10}
50 км 4/4 600 м
[Cb cap]
+1.2 +0.1 92 0 0 1002.3 989.1
00 15.06 ЮВ 3 50 км 9/9 1000 м
[Sc]
+6.1 +2.7 79 +3 +3 1004.6 991.6 -0.3
06 15.06 Ю 4
{10}
50 км 8/8 1000 м
[Sc]
+13.4 +3.1 50 +12 +14 1004.2 991.6
12 15.06 З 4 20 км слаб. ливневой дождь 10/10 600 м
[Cb cap]
+13.0 +0.7 43 +12 +12 1005.4 992.6 +16.2 0.0
18 15.06 штиль 0 50 км {ливн. осадки} 3/3 1000 м
[Sc]
+5.2 +4.0 92 +4 +4 1010.7 997.5
00 16.06 В 1 200 м туман ?/? +2.7 +2.7 100 +1 +1 1013.8 1000.5 -1.0 0.0
06 16.06 ЮВ 2 50 км {туман} 9/5 600 м
[Cu Sc Ac trans Ci fib]
+15.0 +5.1 52 +15 +19 1010.4 997.8
12 16.06 ЮВ 3 50 км 9/9 600 м
[Cb cap]
+17.5 +5.9 46 +18 +18 1006.8 994.3 +18.6
18 16.06 С 1 20 км слаб. ливневой дождь 10/10 600 м
[Cb cap]
+10.2 +7.9 86 +10 +10 1005.8 992.9
00 17.06 В 1 50 км в посл. час ливневой дождь 10/10 600 м
[Cb cap]
+11.5 +10.5 94 +11 +11 1003.0 990.3 +10.0 3
06 17.06 штиль 0 50 км {ливн. осадки} 9/9 600 м
[Cb cap]
+17.6 +15.0 85 +18 +19 1000.6 988.2
12 17.06 З 2
{11}
10 км слаб. ливневой дождь {гроза} 10/10 600 м
[Cb cap]
+16.3 +15.6 96 +16 +16 998.0 985.6 +21.2 7
18 17.06 З 3
{10}
10 км слаб. ливневой дождь 10/10 600 м
[Cb cap]
+11.1 +10.5 96 +9 +9 999.1 986.5
00 18.06 штиль 0 50 км в посл. час ливневой дождь 9/9 600 м
[Cb cap]
+9.0 +8.4 96 +8 +8 1005.6 992.6 +8.3 7
06 18.06 З 2 20 км слаб. ливневой дождь 9/9 600 м
[Cb cap]
+16.4 +10.6 69 +17 +18 1006.1 993.5
12 18.06 ЮЗ 2
{12}
50 км {ливн. осадки} 8/8 600 м
[Cb cap]
+20.0 +10.0 53 +22 +22 комфорт 1005.4 993.0 +21.1 0.0
18 18.06 В 2
{14}
50 км 5/5 600 м
[Cb cap]
+10.5 +8.3 86 +9 +9 1009.0 996.2
00 19.06 В 1 50 км 6/0
[Ci fib]
+13.0 +8.8 76 +13 +17 1009.2 996.4 +4.1
06 19.06 ЮВ 7-13
{13}
50 км 9/8 600 м
[Cb cap Ci fib]
+21.2 +11.5 54 +23 +24 комфорт 1003.7 991.4
12 19.06 ЮВ 3
{14}
50 км {ливн. осадки} 10/10 600 м
[Cb cap]
+17.7 +8.6 55 +18 +18 1002.2 989.8 +23.3 0.0

 

Местоположение метеостанции Тутончаны (Эвенкия, Россия): широта 64.20 долгота 93.78 высота над уровнем моря 106 м.

В архиве по умолчанию представлена погода в Тутончанах за последнюю неделю. Архивные данные за месяц целиком и за предыдущие месяцы, начиная с января 2011 года, Вы можете получить, выбрав интересующий диапазон дат из раскрывающегося списка и нажав кнопку "Ввод!".


*Определитесь, кто Вы:
робот инопланетянин человек

Внимание! Время в таблицах - всемирное. Для получения местного времени необходимо прибавить поправку, которая равна 7 ч.

Смотрите также архив погоды в соседних городах и на ближайших метеорологических станциях:

Погода в Кузьмовке (Эвенкия, Россия) (225 км)
Погода в Большом Пороге (Эвенкия, Россия) (237 км)
Погода в Тембенчи (Эвенкия, Россия) (258 км)
Погода в Агате (Эвенкия, Россия) (298 км)
Погода в Верещагино (Красноярский край, Россия) (305 км)
Погода в Бахте (Красноярский край, Россия) (306 км)
Погода в Верхнеимбатске (Красноярский край, Россия) (310 км)
Погода в Байките (Эвенкия, Россия) (310 км)
Погода в Туре (Эвенкия, Россия) (320 км)
Погода в Туруханске (Красноярский край, Россия) (326 км)

Пояснения к столбцам:

Ветер - указаны скорость ветра в м/с - средняя за 10 мин, порывы в срок и между сроками (в фигурных скобках) и направление, откуда дует ветер: С - северный, СВ - северо-восточный, В - восточный, ЮВ - юго-восточный, Ю - южный, ЮЗ - юго-западный, З - западный, СЗ - северо-западный.
Видимость - горизонтальная дальность видимости в метрах или километрах. При видимости от 1 до 10 км при отсутствии осадков обычно наблюдается дымка, при ухудшении видимости до 1 км и менее - туман. В сухую погоду видимость может ухудшаться дымом, пылью или мглою.
Явления - указаны атмосферные явления, наблюдавшиеся в срок или в последний час перед сроком; фигурными скобками обозначены явления, наблюдавшиеся между сроками (за 1-3 часа до срока); квадратными скобками обозначены град или гололедные отложения с указанием их диаметра в мм.
Облачность - указаны через наклонную черту общая и нижняя облачность в баллах и высота нижней границы облаков в метрах; квадратными скобками обозначены формы облаков: Ci - перистые, Cs - перисто-слоистые, Cc - перисто-кучевые, Ac - высококучевые, As - высокослоистые, Sc - слоисто-кучевые, Ns - слоисто-дождевые, Cu - кучевые, Cb - кучево-дождевые. Подробнее классификацию облаков см. в Атласе облаков (PDF).
T - Температура воздуха - температура, измеренная на высоте 2 м над землей.
Td - Температура точки росы - температура, при понижении до которой содержащийся в воздухе водяной пар достигнет насыщения.
f - Относительная влажность воздуха - влажноcть воздуха, измеренная на высоте 2 м над землей.
Te - Эффективная температура - температура, которую ощущает одетый по сезону человек в тени. Характеристика душности погоды. При расчете учитывается влияние влажности воздуха и скорости ветра на теплоощущения человека.
Tes - Эффективная температура на солнце - температура, которую ощущает человек, с поправкой на солнечный нагрев. Характеристика знойности погоды. Зависит от высоты солнца над горизонтом, облачности и скорости ветра. Ночью, в пасмурную погоду, а также при ветре 12 м/с и более поправка равна нулю.
P - Атмосферное давление - приведенное к уровню моря атмосферное давление.
Po - Атмосферное давление - измеренное на уровне метеостанции атмосферное давление.
Tmin - Минимальная температура - минимум температуры воздуха на высоте 2 м над землей.
Tmax - Максимальная температура - максимум температуры воздуха на высоте 2 м над землей.
R - Количество осадков - Количество выпавших осадков за период времени, мм. При наведении курсора мыши на число - период времени, за который выпало указанное количество осадков.
R24 - Количество осадков - Количество выпавших осадков за 24 часа, мм.
S - Снежный покров - Высота снежного покрова, см. При наведении курсора мыши на число - состояние снежного покрова и степень покрытия местности в баллах.